Location: ??
(35.5052°N, 139.7262°E)
Time: 01:33:52
(UTC+00:00)

OAO 1 - Pass Details

Date: 31 October 2021
Orbit: 773 x 784 km, 35.0° (Epoch: 01 December)

Event Time Altitude Azimuth Distance (km) Brightness Sun altitude
Rises 10:56:17 0° 275° (W) 3,250 8.7 -38.9°
Reaches altitude 10° 10:59:12 10° 262° (W) 2,322 7.6 -39.5°
Enters shadow 11:00:46 16° 249° (WSW) 1,915 7.0 -39.8°
